Regional Weather Roundup
Issued by NWS Upton, NY

Current Version | Previous Version | Graphics & Text | Print | Product List | Glossary Off
Versions: 1 2 3 4 5 6 7 8 9 10 11 12 13 14 15 16 17 18 19 20 21 22 23 24 25 26 27 28 29 30 31 32 33 34 35 36 37 38 39 40 41 42 43 44 45 46 47 48 49 50

000
ASUS41 KOKX 281007
RWROKX

REGIONAL WEATHER ROUNDUP
NATIONAL WEATHER SERVICE NEW YORK NY
600 AM EDT SAT MAR 28 2015

NOTE: "FAIR" INDICATES FEW OR NO CLOUDS BELOW 12,000 FEET WITH NO
SIGNIFICANT WEATHER AND/OR OBSTRUCTIONS TO VISIBILITY.

NYZ071-072-176-178-NJZ106-104-281100-
NEW YORK CITY METRO AREA


CITY           SKY/WX    TMP DP  RH WIND       PRES   REMARKS
CENTRAL PARK   CLOUDY    36  20  52 N9        29.78S WCI  29
LAGUARDIA APRT CLOUDY    36  20  52 N13       29.76S WCI  27
KENNEDY INTL   CLOUDY    37  18  46 N18G30    29.75F WCI  27
NEWARK/LIBERTY CLOUDY    35  20  54 N14G24    29.77S WCI  26
BRNX BOT. GARD   N/A    N/A N/A N/A NW10      29.77S
TETERBORO      CLOUDY    35  20  54 N10       29.76S WCI  27
$$

NYZ177-179-078>081-281100-
LONG ISLAND NEW YORK

CITY           SKY/WX    TMP DP  RH WIND       PRES   REMARKS
FARMINGDALE    CLOUDY    36  23  59 N13G20    29.74R WCI  27
ISLIP          FLURRIES  35  26  69 N12G21    29.71R WCI  27
SHIRLEY        LGT SNOW  33  29  85 N13       29.73R FOG     WCI  24
WESTHAMPTON    LGT SNOW  33  29  85 N10       29.71F FOG     WCI  25
MONTAUK POINT    N/A     37  34  89 N5        29.70F WCI  33
$$

NYZ052-065-067-281100-
HUDSON VALLEY

CITY           SKY/WX    TMP DP  RH WIND       PRES   REMARKS
WHITE PLAINS   CLOUDY    33  20  58 NW20G28   29.73R WCI  21
NEWBURGH       CLOUDY    32  21  64 N8        29.79R WCI  25
MONTGOMERY     CLOUDY    30  18  60 NW8       29.78R WCI  22
POUGHKEEPSIE   CLOUDY    33  21  61 N9        29.79S WCI  25
ALBANY         FLURRIES  28  21  75 NW8       29.85R WCI  20
$$

NJZ001-105-106-008-010-013-015-019>022-104-281100-
NEW JERSEY

CITY           SKY/WX    TMP DP  RH WIND       PRES   REMARKS
NEWARK/LIBERTY CLOUDY    35  20  54 N14G24    29.77S WCI  26
TETERBORO      CLOUDY    35  20  54 N10       29.76S WCI  27
CALDWELL       MOCLDY    33  17  51 NW7       29.78S WCI  27
MORRISTOWN     PTCLDY    36  19  51 N7        29.79R WCI  30
SOMERVILLE     PTCLDY    32  18  56 VRB6      29.78R WCI  26
SUSSEX         CLEAR     29  17  61 N5        29.81R WCI  24
ANDOVER          N/A     28  18  66 VRB5      29.80S WCI  23
TRENTON        PTCLDY    33  18  53 N12G22    29.78R WCI  24
MILLVILLE      CLOUDY    37  26  64 N14G22    29.78R WCI  28
ATLANTIC CITY  CLOUDY    36  26  67 NW15      29.77R WCI  27
WRIGHTSTOWN    CLOUDY    34  23  63 NW15      29.77R WCI  24
TOMS RIVER     CLOUDY    34  23  64 NW9       29.77R WCI  26
BELMAR         CLOUDY    36  21  55 NW13      29.75S WCI  27
$$

PAZ047>061-062-071-281100-
EASTERN PENNSYLVANIA

CITY           SKY/WX    TMP DP  RH WIND       PRES   REMARKS
PHILADELPHIA   CLOUDY    36  21  54 N17G28    29.82R WCI  26
ALLENTOWN      CLOUDY    31  18  58 NW6       29.83R WCI  25
SCRANTON       CLOUDY    27  16  63 N15G21    29.84R WCI  15
$$

CTZ002-004>006-009-010-012-RIZ004-006-007-MAZ004-011-015-281100-
SOUTHERN NEW ENGLAND
 IN CT

CITY           SKY/WX    TMP DP  RH WIND       PRES   REMARKS
BRADLEY INTL   CLOUDY    37  27  67 N8        29.73R WCI  31
HARTFORD       CLOUDY    37  27  67 N8        29.74R WCI  31
DANBURY        CLOUDY    32  22  66 N12G22    29.75S WCI  23
WTRBRY/OXFORD  CLOUDY    32  19  59 N17       29.72F WCI  21
BRIDGEPORT     CLOUDY    36  26  67 N13       29.72S WCI  27
MERIDEN        CLOUDY    36  26  67 NW9       29.73F WCI  29
NEW HAVEN      CLOUDY    36  27  69 N13G22    29.70F WCI  27
CHESTER        MIX PCPN  36  30  80 N10       29.70F WCI  28
GROTON         LGT RAIN  36  34  92 N8        29.69F WCI  30
WILLIMANTIC    CLOUDY    36  30  79 N5        29.71F WCI  32

 IN RI

CITY           SKY/WX    TMP DP  RH WIND       PRES   REMARKS
PROVIDENCE     LGT RAIN  37  34  89 N7        29.70S WCI  32
BLOCK ISLAND   CLOUDY    37  34  87 NE6       29.68S WCI  33
WESTERLY       LGT RAIN  36  34  92 N8        29.69F WCI  30

 IN MA

CITY           SKY/WX    TMP DP  RH WIND       PRES   REMARKS
BOSTON         CLOUDY    37  31  78 N15       29.71F WCI  28
WORCESTER      CLOUDY    34  27  75 N10       29.68F WCI  26
WESTFIELD      CLOUDY    35  26  69 N9        29.73F WCI  28
PROVINCETOWN   CLOUDY    37  36  93 NE7       29.70S WCI  32
NANTUCKET      LGT RAIN  38  35  89 NE17      29.65F WCI  28
$$

ANZ330-335-338-340-345-350-353-355-281100-
COASTAL MARINE OBSERVATIONS


STATION/POSITION TIME  SKY/WX   TEMP    WIND        PRES    VSBY  WAVE
                                AIR SEA DIR/SP/G                  HT/PER
                 (UTC)          (F)     (DEG/KT/KT) (MB)    (MI)  (FT/S)
NY HARB ENTRANCE 0950            38 38  350/ 23/ 27 1006.1          5/11
4S FIRE IS       0903               36                N/A           5/11
20S FIRE ISLAND  0850               38              1006.2          5/12
23SW MTP         0950                                 N/A           8/11
HUDSON CANYON    NOT AVBL
EXECUTION ROCKS  NOT AVBL
WESTERN LI SOUND NOT AVBL
CENTRAL LI SOUND NOT AVBL
EASTERN LI SOUND NOT AVBL
ROBBINS REEF     0900            36     350/ 14/ 17 1006.5
$$


>>>>>>>>>>>>>>>>>>>>>>>>>>>> KEY <<<<<<<<<<<<<<<<<<<<<<<<<<<
>                                                          <
>     SKY/WX - SKY CONDITION/PRESENT WEATHER               <
>     TMP    - TEMPERATURE IN FAHRENHEIT                   <
>     DP     - DEWPOINT IN FAHRENHEIT                      <
>     RH     - RELATIVE HUMIDITY IN PERCENT                <
>     WIND   - DIRECTION AND SPEED IN MPH                  <
>     PRES   - MEAN SEA LEVEL PRESSURE IN INCHES OF HG     <
>     WCI    - WIND CHILL INDEX                            <
>     VSB    - VISIBILITY IN MILES                         <
>     HX     - HEAT INDEX                                  <
>     TC     - TEMPERATURE IN CELSIUS                      <
>     VRB    - VARIABLE WIND DIRECTION                     <
>                                                          <
>>>>>>>>>>>>>>>>>>>>>>>>>>>> KEY <<<<<<<<<<<<<<<<<<<<<<<<<<<




USA.gov is the U.S. government's official web portal to all federal, state and local government web resources and services.